Flag for U.S.A. Weather past 2 weeks in Grand Prairie, Texas, U.S.A.

Now
75 °F

Sunny.


Feels Like: 77 °F
Forecast: 48 / 77 °F
Wind: No wind

Location: Grand Prairie Municipal Airport

Current Time: Jan 27, 2015 at 3:48:39 PM

Latest Report: Jan 27, 2015 at 2:50 PM


Visibility: 10 mi

Pressure: 30.13 "Hg

Humidity: 29%

Dew point: 41 °F

Location of Grand PrairieLocation

Historic Weather in Grand Prairie — Graph

°F

Grand Prairie temperature yesterday

Maximum temperature yesterday: 72 °F (at 4:50 PM)
Minimum temperature yesterday: 38 °F (at 5:15 AM)
Average temperature yesterday: 53 °F

Past Weeks' High & Low Weather Summary

 TemperatureHumidityPressure
High75 °F (Jan 27, 1:50 PM)100% (Jan 13, 8:50 AM)30.52 "Hg (Jan 13, 8:50 AM)
Low32 °F (Jan 13, 7:50 AM)21% (Jan 18, 4:50 PM)29.92 "Hg (Jan 20, 5:15 AM)
Average47 °F66%30.20 "Hg
* Reported Jan 12 1:50 PM — Jan 27 1:50 PM, Grand Prairie, Weather by CustomWeather, © 2014

Note: Actual official high and low records may vary slightly from our data, if they occured in-between our weather recording intervals... More about our weather records

Advertising

Grand Prairie weather history for previous 24 hours

 ConditionsComfort  
Time TempWeatherWind HumidityBarometerVisibility
1:50 PM
Jan 27
75 °FSunny.3 mph31%30.14 "Hg10 mi
12:50 PM73 °FSunny.No wind33%30.17 "Hg10 mi
11:50 AM68 °FSunny.3 mph40%30.20 "Hg10 mi
10:50 AM64 °FSunny.No wind43%30.20 "Hg10 mi
9:50 AM61 °FSunny.No wind52%30.20 "Hg10 mi
8:50 AM54 °FSunny.No wind67%30.19 "Hg10 mi
5:35 AM46 °FClear.No wind75%30.11 "Hg10 mi
5:15 AM47 °FClear.No wind74%30.11 "Hg10 mi
4:55 AM47 °FClear.No wind72%30.10 "Hg10 mi
4:15 AM47 °FClear.No wind72%30.10 "Hg10 mi
3:55 AM48 °FClear.No wind71%30.10 "Hg10 mi
3:35 AM48 °FClear.No wind70%30.11 "Hg10 mi
3:15 AM48 °FClear.No wind71%30.10 "Hg10 mi
2:55 AM49 °FClear.No wind69%30.10 "Hg10 mi
2:35 AMN/AClear.No windN/A30.10 "Hg10 mi
2:15 AM49 °FClear.3 mph67%30.10 "Hg10 mi
1:55 AM49 °FClear.No wind67%30.10 "Hg10 mi
1:35 AM49 °FClear.No wind69%30.10 "Hg10 mi
1:15 AM50 °FClear.No wind65%30.10 "Hg10 mi
12:55 AM53 °FClear.3 mph58%30.10 "Hg10 mi
12:35 AM54 °FClear.No wind56%30.10 "Hg10 mi
12:15 AM54 °FClear.No wind56%30.10 "Hg10 mi
11:55 PM
Jan 26
55 °FClear.6 mph54%30.10 "Hg10 mi
11:35 PM54 °FClear.6 mph56%30.10 "Hg10 mi
11:15 PM57 °FClear.7 mph48%30.09 "Hg10 mi
10:55 PM58 °FClear.6 mph48%30.10 "Hg10 mi
10:15 PM59 °FClear.7 mph46%30.10 "Hg10 mi
9:55 PM59 °FClear.5 mph45%30.10 "Hg10 mi
9:15 PM59 °FClear.5 mph47%30.09 "Hg10 mi
8:55 PM60 °FClear.6 mph46%30.10 "Hg10 mi
8:35 PM60 °FClear.3 mph46%30.10 "Hg10 mi
8:15 PM61 °FClear.3 mph44%30.09 "Hg10 mi
7:55 PM63 °FClear.3 mph42%30.09 "Hg10 mi
7:15 PM65 °FClear.5 mph40%30.09 "Hg10 mi
4:50 PM72 °FSunny.10 mph33%30.09 "Hg10 mi
3:50 PM68 °FSunny.9 mph33%30.10 "Hg10 mi
Weather by CustomWeather, © 2014

See weather overviewHow to use our weather pages